Flag for Australia Weather past 2 weeks in Ballarat, Victoria, Australia

Now
43 °F

Quite cool.


Feels Like: 35 °F
Forecast: 35 / 40 °F
Wind: 16 mph from Northwest

Location: Sheoaks Aws

Current Time: Jul 31, 2014 at 10:30:11 PM

Latest Report: Jul 31, 2014 at 9:00 PM


Visibility: N/A

Pressure: 29.54 "Hg

Humidity: 73%

Dew point: 35 °F

Location of BallaratLocation

Historic Weather in Ballarat — Graph

°F

Ballarat temperature yesterday

Maximum temperature yesterday: 59 °F (at 3:00 PM)
Minimum temperature yesterday: 51 °F (at 6:00 AM)
Average temperature yesterday: 56 °F

Past Weeks' High & Low Weather Summary

 TemperatureHumidityPressure
High59 °F (Jul 28, 3:00 PM)100% (Jul 20, 3:00 AM)30.44 "Hg (Jul 20, 3:00 AM)
Low33 °F (Jul 22, 11:00 PM)55% (Jul 28, 11:00 AM)29.38 "Hg (Jul 31, 12:00 PM)
Average48 °F82%30.05 "Hg
* Reported Jul 16 9:00 PM — Jul 31 9:00 PM, Ballarat, Weather by CustomWeather, © 2014

Note: Actual official high and low records may vary slightly from our data, if they occured in-between our weather recording intervals... More about our weather records

Advertising

Ballarat weather history for previous 24 hours

 ConditionsComfort  
Time TempWeatherWind HumidityBarometerVisibility
9:00 PM
Jul 31
43 °FQuite cool.16 mph73%29.54 "HgN/A
8:00 PM44 °FQuite cool.17 mph69%29.54 "HgN/A
6:00 PM44 °FQuite cool.16 mph81%29.50 "HgN/A
5:00 PM42 °FQuite cool.15 mph87%29.47 "HgN/A
3:00 PM44 °FFog.17 mph92%29.44 "HgN/A
2:00 PM46 °FCool.25 mph89%29.38 "HgN/A
12:00 PM59 °FRefreshingly cool.25 mph59%29.38 "HgN/A
11:00 AM57 °FCool.24 mph61%29.41 "HgN/A
9:00 AM55 °FCool.29 mph65%29.44 "HgN/A
8:00 AM54 °FCool.28 mph69%29.47 "HgN/A
6:00 AM54 °FCool.21 mph70%29.54 "HgN/A
5:00 AM55 °FCool.23 mph67%29.57 "HgN/A
3:00 AM55 °FCool.17 mph65%29.64 "HgN/A
2:00 AM55 °FCool.16 mph69%29.68 "HgN/A
12:00 AM56 °FCool.18 mph68%29.74 "HgN/A
11:00 PM
Jul 30
57 °FCool.18 mph68%29.76 "HgN/A
Weather by CustomWeather, © 2014

See weather overviewHow to use our weather pages